| time (UTC) | temp F | wind direction | speed MPH | gust MPH | rain 1hr in | rain 24hr in | rain mn in | humidity % | barometer mb |
| 20260505211651 | 53 | 131 | 6.0 | 7.0 | 0.00 | 5.07 | 0.10 | 82 | 1007.9 |
| 20260505211234 | 53 | 131 | 5.0 | 5.0 | 0.00 | 5.07 | 0.10 | 82 | 1007.9 |
| 20260505210831 | 53 | 182 | 4.0 | 0.0 | 0.00 | 5.07 | 0.10 | 82 | 1008.0 |
| 20260505210411 | 53 | 148 | 3.0 | 7.0 | 0.00 | 5.07 | 0.10 | 82 | 1007.9 |
| 20260505210006 | 54 | 137 | 4.0 | 0.0 | 0.00 | 5.07 | 0.10 | 82 | 1007.9 |
| 20260505205511 | 54 | 158 | 6.0 | 4.0 | 0.00 | 5.07 | 0.10 | 82 | 1007.9 |
| 20260505205011 | 54 | 152 | 3.0 | 8.0 | 0.00 | 5.07 | 0.10 | 81 | 1007.9 |
| 20260505204554 | 54 | 133 | 6.0 | 4.0 | 0.00 | 5.07 | 0.10 | 81 | 1007.9 |
| 20260505204151 | 54 | 172 | 6.0 | 8.0 | 0.00 | 5.07 | 0.10 | 81 | 1007.8 |
| 20260505203751 | 54 | 160 | 0.0 | 0.0 | 0.00 | 5.07 | 0.09 | 81 | 1007.8 |
| 20260505203316 | 54 | 222 | 4.0 | 5.0 | 0.00 | 5.07 | 0.09 | 80 | 1007.7 |
| 20260505202911 | 55 | 161 | 8.0 | 4.0 | 0.00 | 5.07 | 0.09 | 80 | 1007.7 |
| 20260505202411 | 55 | 141 | 5.0 | 7.0 | 0.00 | 5.07 | 0.09 | 80 | 1007.7 |
| 20260505201926 | 55 | 172 | 1.0 | 7.0 | 0.00 | 5.07 | 0.09 | 80 | 1007.6 |
| 20260505201440 | 55 | 171 | 1.0 | 4.0 | 0.00 | 5.07 | 0.09 | 79 | 1007.5 |
| 20260505201031 | 55 | 136 | 7.0 | 3.0 | 0.00 | 5.07 | 0.09 | 79 | 1007.4 |
| 20260505200541 | 55 | 147 | 5.0 | 5.0 | 0.00 | 5.07 | 0.09 | 79 | 1007.4 |
| 20260505200114 | 55 | 224 | 0.0 | 7.0 | 0.00 | 5.07 | 0.09 | 79 | 1007.4 |
| 20260505195634 | 55 | 181 | 6.0 | 0.0 | 0.00 | 5.07 | 0.09 | 79 | 1007.3 |
| 20260505195156 | 55 | 131 | 5.0 | 3.0 | 0.00 | 5.07 | 0.09 | 80 | 1007.3 |
| 20260505194714 | 56 | 136 | 8.0 | 1.0 | 0.00 | 5.07 | 0.09 | 80 | 1007.3 |
| 20260505194214 | 56 | 179 | 8.0 | 3.0 | 0.00 | 5.07 | 0.08 | 80 | 1007.3 |
| 20260505193746 | 56 | 158 | 7.0 | 9.0 | 0.00 | 5.07 | 0.08 | 80 | 1007.3 |
| 20260505193246 | 56 | 182 | 0.0 | 0.0 | 0.00 | 5.07 | 0.08 | 81 | 1007.3 |
| 20260505192801 | 56 | 133 | 0.0 | 0.0 | 0.00 | 5.07 | 0.08 | 81 | 1007.4 |
| 20260505192326 | 56 | 151 | 7.0 | 0.0 | 0.00 | 5.07 | 0.08 | 82 | 1007.4 |
| 20260505191914 | 56 | 175 | 4.0 | 0.0 | 0.00 | 5.07 | 0.08 | 83 | 1007.3 |
| 20260505191506 | 56 | 200 | 7.0 | 6.0 | 0.00 | 5.07 | 0.08 | 83 | 1007.3 |
| 20260505191021 | 56 | 106 | 6.0 | 3.0 | 0.00 | 5.07 | 0.08 | 83 | 1007.2 |
| 20260505190554 | 56 | 176 | 9.0 | 6.0 | 0.00 | 5.07 | 0.08 | 83 | 1007.1 |
| 20260505185634 | 56 | 165 | 5.0 | 8.0 | 0.00 | 5.07 | 0.08 | 84 | 1007.2 |
| 20260505185141 | 56 | 210 | 0.0 | 0.0 | 0.00 | 5.07 | 0.08 | 84 | 1007.1 |
| 20260505184702 | 57 | 210 | 5.0 | 0.0 | 0.00 | 5.07 | 0.07 | 84 | 1007.1 |
| 20260505184241 | 57 | 148 | 5.0 | 4.0 | 0.00 | 5.07 | 0.07 | 84 | 1007.1 |
| 20260505183814 | 57 | 199 | 2.0 | 4.0 | 0.00 | 5.07 | 0.07 | 84 | 1006.9 |
| 20260505183411 | 57 | 174 | 3.0 | 4.0 | 0.00 | 5.07 | 0.07 | 84 | 1006.9 |
| 20260505182911 | 57 | 148 | 5.0 | 4.0 | 0.00 | 5.07 | 0.07 | 84 | 1006.9 |
| 20260505182505 | 57 | 151 | 0.0 | 0.0 | 0.00 | 5.07 | 0.07 | 85 | 1007.1 |
| 20260505182014 | 57 | 182 | 6.0 | 5.0 | 0.00 | 5.07 | 0.07 | 85 | 1006.9 |
| 20260505181526 | 57 | 175 | 7.0 | 7.0 | 0.00 | 5.07 | 0.07 | 85 | 1006.9 |
| 20260505181126 | 57 | 178 | 2.0 | 9.0 | 0.00 | 5.07 | 0.06 | 86 | 1006.8 |
| 20260505180711 | 58 | 140 | 2.0 | 5.0 | 0.00 | 5.07 | 0.06 | 87 | 1006.8 |
| 20260505180259 | 58 | 85 | 2.0 | 0.0 | 0.00 | 5.07 | 0.06 | 87 | 1006.9 |
| 20260505175840 | 58 | 162 | 0.0 | 0.0 | 0.00 | 5.07 | 0.06 | 87 | 1007.1 |
| 20260505175354 | 58 | 168 | 1.0 | 3.0 | 0.00 | 5.07 | 0.06 | 88 | 1007.1 |
| 20260505174901 | 58 | 311 | 0.0 | 0.0 | 0.00 | 5.07 | 0.06 | 88 | 1006.9 |
| 20260505174416 | 58 | 311 | 0.0 | 0.0 | 0.00 | 5.07 | 0.06 | 88 | 1006.9 |
| 20260505173941 | 58 | 311 | 0.0 | 0.0 | 0.00 | 5.06 | 0.05 | 88 | 1006.8 |
| 20260505173502 | 58 | 311 | 0.0 | 0.0 | 0.00 | 5.06 | 0.05 | 88 | 1006.9 |
| 20260505173014 | 58 | 342 | 0.0 | 0.0 | 0.00 | 5.06 | 0.05 | 88 | 1006.9 |
| 20260505172554 | 58 | 342 | 0.0 | 0.0 | 0.00 | 5.06 | 0.05 | 88 | 1006.9 |
| 20260505172131 | 58 | 342 | 1.0 | 0.0 | 0.00 | 5.06 | 0.05 | 87 | 1006.8 |
| 20260505171641 | 58 | 282 | 3.0 | 4.0 | 0.00 | 5.06 | 0.05 | 86 | 1006.8 |
| 20260505171234 | 59 | 14 | 2.0 | 0.0 | 0.00 | 5.06 | 0.04 | 85 | 1006.8 |
| 20260505170826 | 59 | 18 | 3.0 | 5.0 | 0.00 | 5.06 | 0.04 | 83 | 1006.8 |
| 20260505170354 | 60 | 339 | 5.0 | 5.0 | 0.00 | 5.06 | 0.04 | 82 | 1007.1 |
| 20260505165916 | 60 | 312 | 8.0 | 6.0 | 0.00 | 5.06 | 0.04 | 80 | 1006.9 |
| 20260505165431 | 60 | 342 | 4.0 | 6.0 | 0.00 | 5.06 | 0.04 | 80 | 1006.8 |
| 20260505164956 | 61 | 340 | 5.0 | 3.0 | 0.00 | 5.06 | 0.04 | 79 | 1006.8 |
| 20260505164544 | 61 | 31 | 6.0 | 5.0 | 0.00 | 5.06 | 0.04 | 79 | 1006.5 |
| 20260505164101 | 61 | 309 | 5.0 | 0.0 | 0.00 | 5.06 | 0.04 | 77 | 1006.5 |
| 20260505163631 | 61 | 1 | 3.0 | 0.0 | 0.00 | 5.06 | 0.04 | 77 | 1006.5 |
| 20260505163146 | 61 | 359 | 6.0 | 5.0 | 0.00 | 5.06 | 0.04 | 77 | 1006.4 |
| 20260505162703 | 61 | 302 | 2.0 | 3.0 | 0.00 | 5.06 | 0.04 | 78 | 1006.4 |
| 20260505162231 | 61 | 3 | 0.0 | 0.0 | 0.00 | 5.06 | 0.04 | 78 | 1006.3 |
| 20260505161736 | 61 | 17 | 3.0 | 3.0 | 0.00 | 5.06 | 0.04 | 78 | 1006.3 |
| 20260505161306 | 61 | 8 | 4.0 | 4.0 | 0.00 | 5.06 | 0.04 | 78 | 1006.3 |
| 20260505160901 | 61 | 319 | 1.0 | 0.0 | 0.00 | 5.06 | 0.04 | 78 | 1006.3 |
| 20260505160446 | 61 | 71 | 0.0 | 0.0 | 0.00 | 5.06 | 0.04 | 77 | 1006.3 |
| 20260505153341 | 61 | 342 | 1.0 | 0.0 | 0.00 | 5.06 | 0.04 | 81 | 1006.4 |
| 20260505152851 | 61 | 359 | 0.0 | 0.0 | 0.00 | 5.06 | 0.04 | 82 | 1006.4 |
| 20260505152354 | 61 | 359 | 0.0 | 0.0 | 0.00 | 5.06 | 0.04 | 81 | 1006.4 |
| 20260505151906 | 61 | 359 | 0.0 | 0.0 | 0.00 | 5.06 | 0.04 | 82 | 1006.4 |
| 20260505151417 | 61 | 359 | 0.0 | 0.0 | 0.00 | 5.06 | 0.04 | 82 | 1006.5 |
| 20260505150951 | 61 | 7 | 5.0 | 0.0 | 0.00 | 5.06 | 0.04 | 82 | 1006.4 |
| 20260505150451 | 61 | 62 | 0.0 | 4.0 | 0.00 | 5.06 | 0.04 | 81 | 1006.5 |
| 20260505140640 | 58 | 292 | 0.0 | 0.0 | 0.00 | 5.06 | 0.04 | 85 | 1007.3 |
| 20260505140151 | 59 | 292 | 0.0 | 0.0 | 0.00 | 5.06 | 0.04 | 84 | 1007.3 |
| 20260505130301 | 60 | 292 | 0.0 | 0.0 | 0.00 | 5.06 | 0.02 | 77 | 1008.0 |
| 20260505124941 | 60 | 185 | 3.0 | 0.0 | 0.00 | 5.06 | 0.02 | 76 | 1008.0 |
| 20260505124451 | 60 | 272 | 0.0 | 0.0 | 0.00 | 5.06 | 0.02 | 76 | 1008.0 |
| 20260505124021 | 61 | 169 | 5.0 | 1.0 | 0.00 | 5.06 | 0.02 | 76 | 1008.0 |
| 20260505123521 | 61 | 229 | 0.0 | 4.0 | 0.00 | 5.06 | 0.01 | 76 | 1008.0 |
| 20260505123120 | 61 | 308 | 0.0 | 0.0 | 0.00 | 5.06 | 0.01 | 76 | 1008.0 |
| 20260505122655 | 61 | 277 | 0.0 | 0.0 | 0.00 | 5.06 | 0.01 | 76 | 1008.0 |
| 20260505122156 | 61 | 210 | 0.0 | 0.0 | 0.00 | 5.06 | 0.01 | 76 | 1008.0 |
| 20260505121721 | 61 | 7 | 0.0 | 0.0 | 0.00 | 5.06 | 0.01 | 76 | 1008.0 |
| 20260505121251 | 61 | 356 | 2.0 | 7.0 | 0.00 | 5.06 | 0.01 | 76 | 1007.9 |
| 20260505120834 | 61 | 270 | 6.0 | 6.0 | 0.00 | 5.06 | 0.01 | 75 | 1007.9 |
| 20260505120334 | 60 | 268 | 2.0 | 2.0 | 0.00 | 5.06 | 0.01 | 75 | 1007.9 |
| 20260505115906 | 61 | 52 | 0.0 | 0.0 | 0.00 | 5.06 | 0.01 | 73 | 1007.9 |
| 20260505115503 | 61 | 291 | 4.0 | 2.0 | 0.00 | 5.06 | 0.01 | 73 | 1007.9 |
| 20260505115046 | 62 | 239 | 6.0 | 3.0 | 0.00 | 5.06 | 0.00 | 71 | 1007.9 |
| 20260505114631 | 62 | 304 | 10.0 | 10.0 | 0.00 | 5.06 | 0.00 | 70 | 1008.0 |
| 20260505114146 | 63 | 301 | 4.0 | 5.0 | 0.00 | 5.06 | 0.00 | 68 | 1008.0 |
| 20260505113701 | 64 | 52 | 12.0 | 6.0 | 0.00 | 5.06 | 0.00 | 65 | 1007.9 |
| 20260505113226 | 64 | 267 | 1.0 | 7.0 | 0.00 | 5.06 | 0.00 | 64 | 1007.7 |
| 20260505112826 | 64 | 251 | 0.0 | 0.0 | 0.00 | 5.06 | 0.00 | 62 | 1007.6 |
| 20260505112352 | 64 | 287 | 0.0 | 0.0 | 0.00 | 5.06 | 0.00 | 61 | 1007.5 |
| 20260505111929 | 64 | 287 | 0.0 | 0.0 | 0.00 | 5.06 | 0.00 | 59 | 1007.5 |
| 20260505111526 | 64 | 55 | 0.0 | 0.0 | 0.00 | 5.06 | 0.00 | 58 | 1007.4 |
| 20260505111117 | 64 | 6 | 0.0 | 0.0 | 0.00 | 5.06 | 0.00 | 58 | 1007.4 |
| 20260505110654 | 64 | 6 | 1.0 | 0.0 | 0.00 | 5.06 | 0.00 | 58 | 1007.4 |
| 20260505110154 | 64 | 11 | 2.0 | 0.0 | 0.00 | 5.06 | 0.00 | 58 | 1007.4 |
| 20260505102213 | 65 | 38 | 1.0 | 0.0 | 0.00 | 5.06 | 0.00 | 57 | 1007.5 |
| 20260505101746 | 65 | 322 | 2.0 | 1.0 | 0.00 | 5.06 | 0.00 | 57 | 1007.5 |
| 20260505101336 | 65 | 330 | 2.0 | 3.0 | 0.00 | 5.06 | 0.00 | 57 | 1007.6 |
| 20260505100934 | 65 | 251 | 2.0 | 4.0 | 0.00 | 5.06 | 0.00 | 57 | 1007.6 |
| 20260505100531 | 65 | 42 | 5.0 | 1.0 | 0.00 | 5.06 | 0.00 | 57 | 1007.6 |
| 20260505100055 | 65 | 20 | 0.0 | 0.0 | 0.00 | 5.06 | 0.00 | 57 | 1007.7 |
| 20260505095626 | 65 | 20 | 3.0 | 0.0 | 0.00 | 5.06 | 0.00 | 57 | 1007.7 |
| 20260505095131 | 65 | 316 | 0.0 | 0.0 | 0.00 | 5.06 | 0.00 | 57 | 1007.7 |
| 20260505094726 | 65 | 352 | 6.0 | 7.0 | 0.00 | 5.06 | 0.00 | 58 | 1007.7 |
| 20260505094241 | 64 | 354 | 0.0 | 0.0 | 0.00 | 5.06 | 0.00 | 58 | 1007.7 |
| 20260505093746 | 64 | 328 | 0.0 | 0.0 | 0.00 | 5.06 | 0.00 | 59 | 1007.7 |
| 20260505093331 | 63 | 309 | 0.0 | 3.0 | 0.00 | 5.06 | 0.00 | 59 | 1007.7 |
| 20260505092836 | 63 | 38 | 1.0 | 0.0 | 0.00 | 5.06 | 0.00 | 60 | 1007.8 |
| 20260505092431 | 63 | 79 | 2.0 | 5.0 | 0.00 | 5.06 | 0.00 | 60 | 1007.8 |
| 20260505092026 | 63 | 62 | 2.0 | 5.0 | 0.00 | 5.06 | 0.00 | 59 | 1007.9 |
| 20260505091526 | 64 | 95 | 1.0 | 4.0 | 0.00 | 5.06 | 0.00 | 59 | 1007.9 |
| 20260505091111 | 64 | 8 | 1.0 | 0.0 | 0.00 | 5.06 | 0.00 | 58 | 1007.9 |
| 20260505090641 | 64 | 179 | 0.0 | 0.0 | 0.00 | 5.06 | 0.00 | 58 | 1007.9 |
| 20260505090236 | 65 | 133 | 4.0 | 2.0 | 0.00 | 5.06 | 0.00 | 58 | 1008.0 |
| 20260505085750 | 64 | 8 | 5.0 | 3.0 | 0.00 | 5.06 | 0.00 | 58 | 1008.1 |
| 20260505085258 | 64 | 10 | 0.0 | 0.0 | 0.00 | 5.06 | 0.00 | 58 | 1008.1 |
| 20260505084816 | 64 | 301 | 5.0 | 5.0 | 0.00 | 5.06 | 0.00 | 58 | 1008.1 |
| 20260505081224 | 63 | 330 | 1.0 | 0.0 | 0.00 | 5.06 | 0.00 | 60 | 1008.3 |
| 20260505080744 | 62 | 346 | 0.0 | 5.0 | 0.00 | 5.06 | 0.00 | 61 | 1008.4 |
| 20260505080336 | 62 | 274 | 3.0 | 0.0 | 0.00 | 5.06 | 0.00 | 62 | 1008.4 |
| 20260505075911 | 62 | 76 | 3.0 | 3.0 | 0.00 | 5.06 | 0.00 | 62 | 1008.5 |
| 20260505075451 | 62 | 349 | 1.0 | 0.0 | 0.00 | 5.06 | 0.00 | 62 | 1008.6 |
| 20260505075024 | 62 | 55 | 3.0 | 2.0 | 0.00 | 5.06 | 0.00 | 62 | 1008.6 |
| 20260505074551 | 61 | 265 | 4.0 | 4.0 | 0.00 | 5.06 | 0.00 | 63 | 1008.7 |
| 20260505074141 | 61 | 352 | 0.0 | 6.0 | 0.00 | 5.06 | 0.00 | 64 | 1008.7 |
| 20260505073716 | 61 | 302 | 5.0 | 2.0 | 0.00 | 5.06 | 0.00 | 64 | 1008.7 |
| 20260505073224 | 60 | 13 | 6.0 | 0.0 | 0.00 | 5.06 | 0.00 | 65 | 1008.9 |
| 20260505072751 | 60 | 347 | 2.0 | 3.0 | 0.00 | 5.06 | 0.00 | 66 | 1008.9 |
| 20260505072324 | 60 | 323 | 2.0 | 3.0 | 0.00 | 5.06 | 0.00 | 65 | 1008.9 |
| 20260505071856 | 60 | 14 | 1.0 | 3.0 | 0.00 | 5.06 | 0.00 | 66 | 1008.9 |
| 20260505071356 | 59 | 27 | 5.0 | 5.0 | 0.00 | 5.06 | 0.00 | 66 | 1008.9 |
| 20260505070931 | 59 | 11 | 4.0 | 6.0 | 0.00 | 5.06 | 0.00 | 65 | 1008.7 |
| 20260505070429 | 59 | 3 | 6.0 | 5.0 | 0.00 | 5.06 | 0.00 | 66 | 1008.9 |
| 20260505065951 | 59 | 6 | 0.0 | 0.0 | 0.00 | 5.06 | 0.00 | 66 | 1008.7 |
| 20260505065456 | 59 | 6 | 3.0 | 2.0 | 0.00 | 5.06 | 0.00 | 66 | 1008.7 |
| 20260505065056 | 59 | 27 | 3.0 | 7.0 | 0.00 | 5.06 | 0.00 | 67 | 1008.9 |
| 20260505064626 | 59 | 343 | 0.0 | 1.0 | 0.00 | 5.06 | 0.00 | 67 | 1008.9 |
| 20260505064201 | 59 | 6 | 0.0 | 0.0 | 0.00 | 5.06 | 0.00 | 67 | 1008.9 |
| 20260505063724 | 59 | 6 | 0.0 | 1.0 | 0.00 | 5.06 | 0.00 | 67 | 1009.0 |
| 20260505063301 | 59 | 3 | 0.0 | 0.0 | 0.00 | 5.06 | 0.00 | 67 | 1009.0 |
| 20260505062811 | 59 | 120 | 0.0 | 0.0 | 0.00 | 5.06 | 0.00 | 68 | 1009.0 |
| 20260505062411 | 58 | 120 | 0.0 | 0.0 | 0.00 | 5.06 | 0.00 | 68 | 1009.1 |
| 20260505061946 | 58 | 120 | 0.0 | 0.0 | 0.00 | 5.06 | 0.00 | 68 | 1009.1 |
| 20260505061536 | 58 | 120 | 0.0 | 0.0 | 0.00 | 5.06 | 0.00 | 69 | 1009.1 |
| 20260505061126 | 58 | 120 | 0.0 | 0.0 | 0.00 | 5.06 | 0.00 | 69 | 1009.2 |
| 20260505060711 | 58 | 120 | 0.0 | 0.0 | 0.00 | 5.06 | 0.00 | 69 | 1009.1 |
| 20260505060234 | 58 | 120 | 0.0 | 0.0 | 0.00 | 5.06 | 0.00 | 69 | 1009.1 |
| 20260505055831 | 57 | 120 | 0.0 | 0.0 | 0.00 | 5.06 | 0.00 | 69 | 1009.1 |
| 20260505055346 | 57 | 120 | 0.0 | 0.0 | 0.00 | 5.06 | 0.00 | 70 | 1009.1 |
| 20260505054944 | 57 | 120 | 0.0 | 0.0 | 0.00 | 5.06 | 0.00 | 70 | 1009.1 |
| 20260505054541 | 57 | 120 | 0.0 | 0.0 | 0.00 | 5.06 | 0.00 | 70 | 1009.1 |
| 20260505054121 | 56 | 120 | 0.0 | 0.0 | 0.00 | 5.06 | 0.00 | 70 | 1009.1 |
| 20260505053711 | 56 | 120 | 0.0 | 0.0 | 0.00 | 5.06 | 0.00 | 70 | 1009.1 |
| 20260505053211 | 56 | 120 | 0.0 | 0.0 | 0.00 | 5.06 | 0.00 | 70 | 1009.1 |
| 20260505052741 | 56 | 151 | 0.0 | 2.0 | 0.00 | 5.06 | 0.00 | 71 | 1009.2 |
| 20260505052321 | 56 | 148 | 0.0 | 0.0 | 0.00 | 5.06 | 0.00 | 71 | 1009.2 |
| 20260505051843 | 56 | 169 | 4.0 | 4.0 | 0.00 | 5.06 | 0.00 | 71 | 1009.2 |
| 20260505051431 | 56 | 110 | 4.0 | 1.0 | 0.00 | 5.06 | 0.00 | 71 | 1009.2 |
| 20260505050931 | 56 | 140 | 5.0 | 3.0 | 0.00 | 5.06 | 0.00 | 71 | 1009.2 |
| 20260505050451 | 55 | 119 | 0.0 | 0.0 | 0.00 | 5.06 | 0.00 | 71 | 1009.3 |
| 20260505041554 | 54 | 120 | 0.0 | 1.0 | 0.00 | 5.06 | 0.00 | 72 | 1009.5 |
| 20260505041116 | 54 | 133 | 5.0 | 4.0 | 0.00 | 5.06 | 0.00 | 72 | 1009.4 |
| 20260505040634 | 54 | 176 | 5.0 | 7.0 | 0.00 | 5.06 | 0.00 | 72 | 1009.4 |
| 20260505040231 | 54 | 128 | 0.0 | 5.0 | 0.00 | 5.06 | 0.00 | 72 | 1009.4 |
| 20260505035816 | 54 | 131 | 0.0 | 0.0 | 0.00 | 5.06 | 0.00 | 72 | 1009.3 |
| 20260505035419 | 54 | 131 | 0.0 | 0.0 | 0.00 | 5.06 | 0.00 | 72 | 1009.3 |
| 20260505035002 | 54 | 131 | 0.0 | 0.0 | 0.00 | 5.06 | 0.00 | 72 | 1009.2 |
| 20260505034526 | 54 | 131 | 0.0 | 1.0 | 0.00 | 5.06 | 0.00 | 72 | 1009.3 |
| 20260505034101 | 55 | 147 | 0.0 | 0.0 | 0.00 | 5.06 | 0.00 | 72 | 1009.3 |
| 20260505033651 | 54 | 147 | 0.0 | 0.0 | 0.00 | 5.06 | 0.00 | 72 | 1009.3 |
| 20260505033224 | 54 | 185 | 0.0 | 0.0 | 0.00 | 5.06 | 0.00 | 72 | 1009.4 |
| 20260505032811 | 54 | 127 | 0.0 | 0.0 | 0.00 | 5.06 | 0.00 | 72 | 1009.4 |
| 20260505032336 | 54 | 157 | 2.0 | 2.0 | 0.00 | 5.06 | 0.00 | 72 | 1009.4 |
| 20260505031851 | 54 | 161 | 2.0 | 2.0 | 0.00 | 5.06 | 0.00 | 72 | 1009.5 |
| 20260505031416 | 55 | 157 | 0.0 | 0.0 | 0.00 | 5.06 | 0.00 | 72 | 1009.6 |
| 20260505030916 | 55 | 157 | 0.0 | 0.0 | 0.00 | 5.06 | 0.00 | 72 | 1009.7 |
| 20260505030456 | 55 | 121 | 3.0 | 3.0 | 0.00 | 5.06 | 0.00 | 71 | 1009.7 |
| 20260505030031 | 55 | 150 | 1.0 | 4.0 | 0.00 | 5.06 | 0.00 | 71 | 1009.7 |
| 20260505025531 | 55 | 145 | 1.0 | 3.0 | 0.00 | 5.06 | 0.00 | 71 | 1009.8 |
| 20260505025041 | 55 | 172 | 0.0 | 0.0 | 0.00 | 5.06 | 0.00 | 71 | 1009.8 |
| 20260505024604 | 55 | 172 | 0.0 | 0.0 | 0.00 | 5.06 | 0.00 | 71 | 1009.9 |
| 20260505024111 | 55 | 189 | 1.0 | 2.0 | 0.00 | 5.06 | 0.00 | 71 | 1009.9 |
| 20260505023626 | 55 | 102 | 1.0 | 2.0 | 0.00 | 5.06 | 0.00 | 70 | 1009.9 |
| 20260505023221 | 55 | 136 | 2.0 | 2.0 | 0.00 | 5.06 | 0.00 | 70 | 1009.9 |
| 20260505022756 | 55 | 167 | 0.0 | 0.0 | 0.00 | 5.06 | 0.00 | 70 | 1010.0 |
| 20260505022321 | 55 | 169 | 1.0 | 0.0 | 0.00 | 5.06 | 0.00 | 70 | 1010.1 |
| 20260505021924 | 55 | 157 | 0.0 | 0.0 | 0.00 | 5.06 | 0.00 | 70 | 1010.1 |
| 20260505021441 | 56 | 155 | 0.0 | 0.0 | 0.00 | 5.06 | 0.00 | 70 | 1010.1 |
| 20260505020951 | 56 | 186 | 0.0 | 3.0 | 0.00 | 5.06 | 0.00 | 70 | 1010.2 |
| 20260505020514 | 56 | 113 | 0.0 | 0.0 | 0.00 | 5.06 | 0.00 | 69 | 1010.3 |
| 20260505020036 | 56 | 162 | 0.0 | 0.0 | 0.00 | 5.06 | 0.00 | 69 | 1010.3 |
| 20260505015626 | 56 | 168 | 0.0 | 0.0 | 0.00 | 5.06 | 0.00 | 69 | 1010.4 |
| 20260505015136 | 56 | 168 | 0.0 | 0.0 | 0.00 | 5.06 | 0.00 | 69 | 1010.5 |
| 20260505014701 | 56 | 168 | 0.0 | 0.0 | 0.00 | 5.06 | 0.00 | 69 | 1010.5 |
| 20260505014216 | 56 | 152 | 2.0 | 2.0 | 0.00 | 5.06 | 0.00 | 69 | 1010.5 |
| 20260505013714 | 56 | 104 | 0.0 | 0.0 | 0.00 | 5.06 | 0.00 | 69 | 1010.5 |
| 20260505013244 | 56 | 133 | 3.0 | 0.0 | 0.00 | 5.06 | 0.00 | 69 | 1010.7 |
| 20260505012844 | 56 | 127 | 0.0 | 0.0 | 0.00 | 5.06 | 0.00 | 69 | 1010.7 |
| 20260505012421 | 56 | 176 | 0.0 | 0.0 | 0.00 | 5.06 | 0.00 | 69 | 1010.8 |
| 20260505011951 | 56 | 176 | 0.0 | 0.0 | 0.00 | 5.06 | 0.00 | 68 | 1010.9 |
| 20260505011521 | 56 | 176 | 0.0 | 0.0 | 0.00 | 5.06 | 0.00 | 68 | 1011.0 |
| 20260505011101 | 56 | 176 | 0.0 | 0.0 | 0.00 | 5.06 | 0.00 | 68 | 1011.1 |
| 20260505010636 | 56 | 176 | 0.0 | 0.0 | 0.00 | 5.06 | 0.00 | 68 | 1011.0 |
| 20260505010201 | 56 | 176 | 0.0 | 0.0 | 0.00 | 5.06 | 0.00 | 68 | 1011.0 |
| 20260505005701 | 56 | 119 | 1.0 | 4.0 | 0.00 | 5.06 | 0.00 | 68 | 1011.1 |
| 20260505005236 | 56 | 172 | 0.0 | 0.0 | 0.00 | 5.06 | 0.00 | 68 | 1011.1 |
| 20260505004829 | 57 | 172 | 1.0 | 0.0 | 0.00 | 5.06 | 0.00 | 68 | 1011.2 |
| 20260505004421 | 57 | 145 | 0.0 | 0.0 | 0.00 | 5.06 | 0.00 | 68 | 1011.2 |
| 20260505004011 | 57 | 168 | 0.0 | 0.0 | 0.00 | 5.06 | 0.00 | 68 | 1011.2 |
| 20260505003546 | 57 | 147 | 0.0 | 0.0 | 0.00 | 5.06 | 0.00 | 68 | 1011.2 |
| 20260505003134 | 57 | 147 | 0.0 | 1.0 | 0.00 | 5.06 | 0.00 | 67 | 1011.2 |
| 20260505002641 | 57 | 131 | 1.0 | 1.0 | 0.00 | 5.06 | 0.00 | 67 | 1011.2 |
| 20260505002201 | 57 | 138 | 0.0 | 0.0 | 0.00 | 5.06 | 0.00 | 67 | 1011.2 |
| 20260505001724 | 57 | 144 | 0.0 | 0.0 | 0.00 | 5.06 | 0.00 | 67 | 1011.3 |
| 20260505001321 | 57 | 209 | 0.0 | 0.0 | 0.00 | 5.06 | 0.00 | 67 | 1011.3 |
| 20260505000824 | 57 | 209 | 0.0 | 0.0 | 0.00 | 5.06 | 0.00 | 67 | 1011.4 |
| 20260505000413 | 57 | 209 | 0.0 | 0.0 | 0.00 | 5.06 | 0.00 | 67 | 1011.4 |
| 20260504235911 | 57 | 209 | 0.0 | 0.0 | 0.00 | 5.06 | 0.00 | 67 | 1011.4 |
| 20260504235434 | 57 | 209 | 0.0 | 0.0 | 0.00 | 5.06 | 0.00 | 66 | 1011.4 |
| 20260504235021 | 57 | 209 | 0.0 | 0.0 | 0.00 | 5.06 | 0.00 | 66 | 1011.4 |
| 20260504234524 | 58 | 209 | 0.0 | 0.0 | 0.00 | 5.06 | 0.00 | 66 | 1011.4 |
| 20260504234031 | 58 | 209 | 0.0 | 0.0 | 0.00 | 5.06 | 0.00 | 66 | 1011.4 |
| 20260504233604 | 58 | 209 | 0.0 | 0.0 | 0.00 | 5.06 | 0.00 | 65 | 1011.3 |
| 20260504233201 | 58 | 209 | 0.0 | 0.0 | 0.00 | 5.06 | 0.00 | 65 | 1011.5 |
| 20260504232711 | 58 | 209 | 0.0 | 0.0 | 0.00 | 5.06 | 0.00 | 65 | 1011.5 |
| 20260504232234 | 59 | 209 | 0.0 | 0.0 | 0.00 | 5.06 | 0.00 | 64 | 1011.6 |
| 20260504231824 | 59 | 209 | 0.0 | 0.0 | 0.00 | 5.06 | 0.00 | 64 | 1011.6 |
| 20260504231344 | 59 | 209 | 0.0 | 0.0 | 0.00 | 5.06 | 0.00 | 64 | 1011.5 |
| 20260504230901 | 59 | 209 | 0.0 | 0.0 | 0.00 | 5.06 | 0.00 | 64 | 1011.6 |
| 20260504230501 | 59 | 209 | 0.0 | 0.0 | 0.00 | 5.06 | 0.00 | 64 | 1011.7 |
| 20260504230041 | 59 | 209 | 0.0 | 0.0 | 0.00 | 5.06 | 0.00 | 64 | 1011.7 |
| 20260504225601 | 59 | 209 | 0.0 | 0.0 | 0.00 | 5.06 | 0.00 | 64 | 1011.8 |
| 20260504225141 | 59 | 209 | 0.0 | 0.0 | 0.00 | 5.06 | 0.00 | 64 | 1011.8 |
| 20260504224644 | 59 | 209 | 0.0 | 0.0 | 0.00 | 5.06 | 0.00 | 64 | 1011.9 |
| 20260504224204 | 59 | 209 | 0.0 | 0.0 | 0.00 | 5.06 | 0.00 | 64 | 1011.9 |
| 20260504223741 | 59 | 209 | 0.0 | 0.0 | 0.00 | 5.06 | 0.00 | 64 | 1011.9 |
| 20260504223251 | 59 | 209 | 0.0 | 0.0 | 0.00 | 5.06 | 0.00 | 64 | 1011.9 |
| 20260504222831 | 59 | 209 | 0.0 | 0.0 | 0.00 | 5.06 | 0.00 | 64 | 1011.9 |
| 20260504222404 | 59 | 209 | 0.0 | 0.0 | 0.00 | 5.06 | 0.00 | 64 | 1011.9 |
| 20260504221941 | 59 | 209 | 0.0 | 0.0 | 0.00 | 5.06 | 0.00 | 63 | 1011.9 |
| 20260504221501 | 59 | 209 | 0.0 | 0.0 | 0.00 | 5.06 | 0.00 | 63 | 1011.9 |
| 20260504221001 | 59 | 209 | 0.0 | 0.0 | 0.00 | 5.06 | 0.00 | 63 | 1011.9 |
| 20260504220541 | 59 | 209 | 0.0 | 0.0 | 0.00 | 5.06 | 0.00 | 63 | 1011.9 |
| 20260504220051 | 60 | 209 | 0.0 | 0.0 | 0.00 | 5.06 | 0.00 | 62 | 1011.8 |
| 20260504215616 | 60 | 209 | 0.0 | 0.0 | 0.00 | 5.06 | 0.00 | 62 | 1011.8 |
| 20260504215211 | 60 | 209 | 0.0 | 0.0 | 0.00 | 5.06 | 0.00 | 62 | 1011.8 |
| 20260504214721 | 60 | 209 | 0.0 | 0.0 | 0.00 | 5.06 | 0.00 | 62 | 1011.8 |
| 20260504214231 | 60 | 209 | 0.0 | 0.0 | 0.00 | 5.06 | 0.00 | 62 | 1011.8 |
| 20260504213811 | 60 | 209 | 0.0 | 0.0 | 0.00 | 5.06 | 0.00 | 62 | 1011.9 |
| 20260504213321 | 60 | 209 | 0.0 | 0.0 | 0.00 | 5.06 | 0.00 | 62 | 1011.9 |
| 20260504212856 | 60 | 209 | 0.0 | 0.0 | 0.00 | 5.06 | 0.00 | 61 | 1011.8 |
| 20260504212356 | 60 | 209 | 0.0 | 0.0 | 0.00 | 5.06 | 0.00 | 61 | 1011.8 |